Regional Weather Roundup
Issued by NWS Northern Indiana

Home | Current Version | Previous Version | Graphics & Text | Print | Product List | Glossary On
Versions: 1 2 3 4 5 6 7 8 9 10 11 12 13 14 15 16 17 18 19 20 21 22 23 24 25 26 27 28 29 30 31 32 33 34 35 36 37 38 39 40 41 42 43 44 45 46 47 48 49 50
000
ASUS43 KIWX 291600
RWRIWX

KIWX WEATHER ROUNDUP
NATIONAL WEATHER SERVICE NORTHERN INDIANA
1200 PM EDT THU SEP 29 2016

NOTE: "FAIR" INDICATES FEW OR NO CLOUDS BELOW 12,000 FEET WITH NO
SIGNIFICANT WEATHER AND/OR OBSTRUCTIONS TO VISIBILITY.

* THESE STATIONS ARE NOT UNDER NWS QUALITY CONTROL. THEY ALSO MAY NOT
  REPORT WEATHER SUCH AS PRECIPITATION OR FOG.

INZ001>027-291700-
NORTHERN INDIANA

CITY           SKY/WX    TMP DP  RH WIND       PRES   REMARKS
GARY*          CLOUDY    63  61  94 NE17G29   30.15S
SOUTH BEND     CLOUDY    60  58  92 NE8       30.14R
ELKHART*       CLOUDY   N/A N/A N/A NE12      30.13
GOSHEN         LGT RAIN  63  58  83 NE7       30.12S
ANGOLA*          N/A     63  54  72 SE8       30.12R
FORT WAYNE     PTSUNNY   62  55  77 E12       30.12R

$$
INZ028>050-291700-
CENTRAL INDIANA

CITY           SKY/WX    TMP DP  RH WIND       PRES   REMARKS
LAFAYETTE      CLOUDY    61  56  83 NE8       30.10F
KOKOMO*        CLOUDY    61  54  77 E8        30.11S
MUNCIE*        CLOUDY    61  54  77 E8        30.10S
INDIANAPOLIS   CLOUDY    59  52  77 E9        30.09S

$$
MIZ043>046-050>051-056>058-064>065-071>073-077>080-291700-
SOUTHWEST LOWER MICHIGAN

CITY           SKY/WX    TMP DP  RH WIND       PRES   REMARKS
BATTLE CREEK   CLOUDY    61  59  93 NE9       30.17R
BENTON HARBOR  CLOUDY    61  57  87 NE7G16    30.15S
COLDWATER*     CLOUDY    63  59  85 E14       30.14R
HILLSDALE*     CLOUDY    61  57  88 NE9       30.15R
HOLLAND        LGT RAIN  61  57  87 NE10G21   30.19R
GRAND RAPIDS   LGT RAIN  60  57  89 NE17G28   30.21R FOG
KALAMAZOO      CLOUDY    62  57  83 VRB7      30.16R
STURGIS*       CLOUDY    64  58  79 E8G16     30.12S
THREE RIVERS*  CLOUDY    63  60  88 NE12      30.14R

$$
OHZ001>008-015>018-024>025-291700-
NORTHWEST OHIO

CITY           SKY/WX    TMP DP  RH WIND       PRES   REMARKS
DEFIANCE       MOSUNNY   65  54  67 E9        30.13R
FINDLAY        CLOUDY    62  55  77 E7        30.12R
TOLEDO EXPRESS CLOUDY    58  57  97 NE5       30.15R
TOLEDO METCALF CLOUDY    62  57  83 NE5       30.16R
LIMA           MOSUNNY   64  54  69 E8        30.10S

$$
AND FOR LAKE MICHIGAN COASTAL AND OPEN LAKE BUOY OBSERVATIONS

STATION/POSITION TEMP    WIND        PRES    VSBY  WAVE
                 AIR SEA DIR/SP/G                  HT/PER
                 (F)     (DEG/KT/KT) (MB)    (MI)  (FT/S)
CALUMET HARBOR    63      30/ 16/ 22 1020.6R
MICHIGAN CITY     60      10/ 21/ 23   N/A
BURNS HARBOR      62      40/ 21/ 26 1021.0R
SAINT JOSEPH      60      40/  5/ 12 1021.0S
SOUTH LAKE BUOY   64 69   50/ 23/ 27 1021.4          7/ 8
4 MI NW BRIDGMAN  61 64   30/ 16/ 21 1020.9R         5/ 7
MICHIGAN CITY     62 65   30/ 16/ 23   N/A           8/ 7

$$
&&



USA.gov is the U.S. government's official web portal to all federal, state and local government web resources and services.